Header for Extended Forecast Station List Page

Search by: ID | Name | Date | Parm | Value | Avg | % Avg
Sort by: ID | Name | Date | Parm | Value | Avg | % Avg

Enter search or view all records.

Click on id for station plot
#IDNameDateParmValueAvg% Avg
0LYDM8KOOTENAI-LIBBY DAM09-26-2016INFLOW (KAF)97399798
1LEOI1KOOTENAI-AT LEONIA09-26-2016DISCHARGE (KAF)27331694161
2BFEI1KOOTENAI-AT BONNERS FERRY09-26-2016STAGE (FT)MMM
3FCFM8NF FLATHEAD-NEAR COLUMBIA FALLS09-26-2016DISCHARGE (KAF)225204110
4WGCM8MF FLATHEAD-NEAR WEST GLACIER09-26-2016DISCHARGE (KAF)226178127
5HHWM8SF FLATHEAD-HUNGRY HORSE DAM09-26-2016INFLOW (KAF)15224363
6CFMM8FLATHEAD-AT COLUMBIA FALLS09-26-2016DISCHARGE (KAF)949120978
7DLGM8CLARK FORK-AT DEER LODGE09-26-2016DISCHARGE (KAF)436369
8DRMM8CLARK FORK-NR DRUMMOND09-26-2016DISCHARGE (KAF)108MM
9RCCM8ROCK CREEK-NEAR CLINTON09-26-2016DISCHARGE (KAF)475290
10BONM8BLACKFOOT-NEAR BONNER09-26-2016DISCHARGE (KAF)10414074
11ABOM8CLARK FORK-ABOVE MISSOULA09-26-2016DISCHARGE (KAF)26935576
12BITM8BITTERROOT-NEAR MISSOULA09-26-2016DISCHARGE (KAF)17523275
13BELM8CLARK FORK-BELOW MISSOULA09-26-2016DISCHARGE (KAF)44259474
14STRM8ST. REGIS-NEAR ST. REGIS09-26-2016DISCHARGE (KAF)173450
15SRGM8CLARK FORK-AT ST REGIS09-26-2016DISCHARGE (KAF)55076872
16KERM8FLATHEAD-KERR DAM09-26-2016INFLOW (KAF)1067148872
17NOXM8CLARK FORK-NOXON RAPIDS DAM09-26-2016INFLOW (KAF)2303336368
18CABI1CLARK FORK-CABINET GORGE DAM09-26-2016INFLOW (KAF)2523349972
19PRTI1PRIEST-NEAR PRIEST RIVER09-26-2016DISCHARGE (KAF)21722497
20ALFW1PEND OREILLE-ALBENI FALLS DAM09-26-2016INFLOW (KAF)2782403669
21HOPI1PEND OREILLE-PEND OREILLE LAKE NR HOPE09-26-2016LAKE ELEVATION (FT)MMM
22COEI1COEUR D ALENE-COEUR D ALENE LAKE09-26-2016INFLOW (KAF)28850357
23SPOW1SPOKANE-AT SPOKANE09-26-2016DISCHARGE (KAF)445MM
24LLKW1SPOKANE-AT LONGLAKE09-26-2016INFLOW (KAF)60795364
25SATI1ST MARIES-NEAR SANTA09-26-2016DISCHARGE (KAF)152558
26SJMI1ST JOE-AT ST MARIES09-26-2016STAGE (FT)MMM
27CIBW1COLUMBIA-AT INTL BOUNDARY09-26-2016DISCHARGE (KAF)18409MM
28LAUW1KETTLE-AT LAURIER09-26-2016DISCHARGE (KAF)10912885
29GCDW1COLUMBIA-GRAND COULEE DAM09-26-2016INFLOW (KAF)1915517240111
30CHJW1COLUMBIA-CHIEF JOSEPH DAM09-26-2016INFLOW (KAF)194932006897
31TONW1OKANOGAN-NEAR TONASKET09-26-2016DISCHARGE (KAF)23527885
32PATW1METHOW-NEAR PATEROS09-26-2016DISCHARGE (KAF)9110091
33WELW1COLUMBIA-WELLS DAM09-26-2016INFLOW (KAF)198192041497
34CHDW1CHELAN-LAKE CHELAN DAM09-26-2016INFLOW (KAF)210156135
35RRHW1COLUMBIA-ROCKY REACH DAM09-26-2016INFLOW (KAF)202252092597
36ARDW1ENTIAT-NEAR ARDENVOIR09-26-2016DISCHARGE (KAF)2922135
37PESW1WENATCHEE-AT PESHASTIN09-26-2016DISCHARGE (KAF)303277109
38WANW1COLUMBIA-WANAPUM DAM09-26-2016INFLOW (KAF)2052519040108
39PRWW1COLUMBIA-PRIEST RAPIDS DAM09-26-2016INFLOW (KAF)2052619355106
40KEDW1YAKIMA-KEECHELUS LAKE09-26-2016INFLOW (KAF)4847101
41KADW1KACHESS-KACHESS DAM09-26-2016INFLOW (KAF)353989
42EASW1YAKIMA-AT EASTON09-26-2016DISCHARGE (KAF)7061115
43CLUW1CLE ELUM-CLE ELUM LAKE09-26-2016INFLOW (KAF)899494
44TNAW1TEANAWAY-BELOW FORKS09-26-2016DISCHARGE (KAF)143046
45UMTW1YAKIMA-AT UMTANUM09-26-2016DISCHARGE (KAF)21525584
46BUDW1BUMPING-BUMPING LAKE DAM09-26-2016INFLOW (KAF)223268
47CLFW1NACHES-NEAR CLIFFDEL09-26-2016DISCHARGE (KAF)719376
48RILW1TIETON-RIMROCK LAKE NEAR RIMROCK09-26-2016INFLOW (KAF)536285
49NACW1NACHES-NEAR NACHES09-26-2016DISCHARGE (KAF)7670109
50PARW1YAKIMA-NEAR PARKER09-26-2016DISCHARGE (KAF)35337494
51KIOW1YAKIMA-AT KIONA09-26-2016DISCHARGE (KAF)57062092
52IPDI1HENRYS FORK-ISLAND PARK DAM09-26-2016INFLOW (KAF)11312094
53CHEI1FALL RIVER-NEAR CHESTER09-26-2016DISCHARGE (KAF)10610898
54ANTI1HENRYS FORK-AT ST. ANTHONY09-26-2016DISCHARGE (KAF)32933498
55TEAI1TETON-NEAR ST. ANTHONY09-26-2016DISCHARGE (KAF)9911487
56REXI1HENRYS FORK-AT REXBURG09-26-2016DISCHARGE (KAF)41442498
57JLKW4SNAKE-JACKSON LAKE AT DAM09-26-2016INFLOW (KAF)8511176
58JKSW4SNAKE-NEAR JACKSON09-26-2016DISCHARGE (KAF)353339104
59ALPW4SNAKE-NEAR ALPINE09-26-2016DISCHARGE (KAF)38942991
60PLDI1SF SNAKE-PALISADES DAM09-26-2016INFLOW (KAF)63668693
61HEII1SNAKE-NEAR HEISE09-26-2016DISCHARGE (KAF)67668898
62RIDI1WILLOW CREEK-RIRIE DAM09-26-2016INFLOW (KAF)8899
63SIFI1SNAKE-AB EAGLE ROCK NR IDAHO FALLS09-26-2016DISCHARGE (KAF)867830104
64SHYI1SNAKE-NEAR SHELLEY09-26-2016DISCHARGE (KAF)854793108
65SNAI1SNAKE-AT BLACKFOOT09-26-2016DISCHARGE (KAF)747685109
66BFTI1SNAKE-NEAR BLACKFOOT09-26-2016DISCHARGE (KAF)763738103
67PIHI1PORTNEUF-AT POCATELLO09-26-2016DISCHARGE (KAF)485687
68AFRI1SNAKE-AMERICAN FALLS RESERVOIR09-26-2016INFLOW (KAF)1399142298
69MILI1SNAKE-AT MILNER09-26-2016DISCHARGE (KAF)11643927
70HOTI1BRUNEAU-NEAR HOT SPRINGS09-26-2016DISCHARGE (KAF)3225128
71SWAI1SNAKE-BELOW SWAN FALLS09-26-2016DISCHARGE (KAF)1888246876
72HWRI1BIG LOST-AT HOWELL RANCH NEAR CHILLY09-26-2016DISCHARGE (KAF)222396
73MACI1BIG LOST-MACKAY RESERVOIR NEAR MACKAY09-26-2016INFLOW (KAF)388489
74HALI1BIG WOOD-AT HAILEY09-26-2016DISCHARGE (KAF)354285
75MAGI1BIG WOOD-MAGIC DAM09-26-2016INFLOW (KAF)202775
76LWRI1LITTLE WOOD-LITTLE WOOD DAM09-26-2016INFLOW (KAF)101564
77OWYO3OWYHEE-OWYHEE DAM09-26-2016INFLOW (KAF)646895
78ARAI1SF BOISE-ANDERSON RANCH DAM09-26-2016INFLOW (KAF)677294
79LUCI1BOISE-LUCKY PEAK DAM09-26-2016INFLOW (KAF)26MM
80BIGI1BOISE-AT GLENWOOD BRIDGE09-26-2016DISCHARGE (KAF)4745103
81PARI1BOISE-NEAR PARMA09-26-2016DISCHARGE (KAF)18721587
82WRMO3MALHEUR-WARM SPRINGS DAM09-26-2016INFLOW (KAF)101469
83BERO3MALHEUR-AGENCY VALLEY DAM09-26-2016INFLOW (KAF)101373
84BULO3BULLY CREEK-BULLY CREEK DAM09-26-2016INFLOW (KAF)1158
85VALO3MALHEUR-NEAR VALE09-26-2016DISCHARGE (KAF)162467
86CSDI1NF PAYETTE-CASCADE DAM09-26-2016INFLOW (KAF)759182
87DEDI1DEADWOOD-NEAR LOWMAN09-26-2016INFLOW (KAF)171891
88EMMI1PAYETTE-NEAR EMMETT09-26-2016DISCHARGE (KAF)22334664
89WSRI1WEISER-NEAR WEISER09-26-2016DISCHARGE (KAF)395868
90WEII1SNAKE-AT WEISER09-26-2016DISCHARGE (KAF)2685351476
91BRNI1SNAKE-BROWNLEE DAM09-26-2016INFLOW (KAF)2867358980
92WHBI1SALMON-AT WHITEBIRD09-26-2016DISCHARGE (KAF)953109587
93TRYO3GRANDE RONDE-TROY09-26-2016DISCHARGE (KAF)15425161
94ANAW1SNAKE-NEAR ANATONE09-26-2016DISCHARGE (KAF)3685535769
95ORFI1CLEARWATER-AT OROFINO09-26-2016DISCHARGE (KAF)43958675
96DWRI1NF CLEARWATER-DWORSHAK DAM09-26-2016INFLOW (KAF)27344262
97SPDI1CLEARWATER-AT SPALDING09-26-2016DISCHARGE (KAF)867139862
98LGDW1SNAKE-LOWER GRANITE DAM09-26-2016INFLOW (KAF)4551693366
99LGSW1SNAKE-LITTLE GOOSE DAM09-26-2016INFLOW (KAF)4551697965
100LMNW1SNAKE-LOWER MONUMENTAL DAM09-26-2016INFLOW (KAF)4577701765
101IHDW1SNAKE-ICE HARBOR DAM09-26-2016INFLOW (KAF)4577693966
102TCHW1WALLA WALLA-NEAR TOUCHET09-26-2016DISCHARGE (KAF)777899
103MCDW1COLUMBIA-MCNARY DAM09-26-2016INFLOW (KAF)257392793792
104GIBO3UMATILLA-NEAR GIBBON09-26-2016DISCHARGE (KAF)182672
105PDTO3UMATILLA-AT PENDLETON09-26-2016DISCHARGE (KAF)455483
106MYKO3MCKAY CREEK-NEAR PILOT ROCK09-26-2016DISCHARGE (KAF)101096
107UMAO3UMATILLA-NEAR UMATILLA09-26-2016DISCHARGE (KAF)7354135
108MONO3NF JOHN DAY-AT MONUMENT09-26-2016DISCHARGE (KAF)547274
109SERO3JOHN DAY-AT SERVICE CK09-26-2016DISCHARGE (KAF)9414167
110JDAO3COLUMBIA-JOHN DAY DAM09-26-2016INFLOW (KAF)266482868393
111MODO3DESCHUTES-AT MOODY NR BIGGS09-26-2016DISCHARGE (KAF)1218128795
112TDAO3COLUMBIA-THE DALLES DAM09-26-2016INFLOW (KAF)273213143587
113PITW1KLICKITAT-NEAR PITT09-26-2016DISCHARGE (KAF)21323491
114HODO3HOOD-NEAR TUCKER BRIDGE09-26-2016DISCHARGE (KAF)208188111
115UNDW1WHITE SALMON-NEAR UNDERWOOD09-26-2016DISCHARGE (KAF)210203104
116BONO3COLUMBIA-BONNEVILLE DAM09-26-2016INFLOW (KAF)27947MM